Wolf Point, MT

4:51 PM MDT on September 26, 2017 (GMT -0600)
Clayton

Weather History for KOLF - July, 2013

Change the Weather History Date:

Sunday, July 14, 2013

  Actual Average Record
Temperature  
Mean Temperature 60 °F -  
Max Temperature 73 °F 87 °F 102 °F (2017)
Min Temperature 46 °F 54 °F 43 °F (2014)
Degree Days  
Heating Degree Days 5    
Cooling Degree Days 0    
Growing Degree Days 9 (Base 50)    
Moisture  
Dew Point 51 °F    
Average Humidity 74    
Maximum Humidity 94    
Minimum Humidity 51    
Precipitation  
Precipitation T in 0.06 in 0.68 in (2011)
Month to date precipitation 0.49 0.98  
Year to date precipitation 9.21 7.39  
Sea Level Pressure  
Sea Level Pressure 30.24 in    
Wind  
Wind Speed 6 mph (East)    
Max Wind Speed 15 mph    
Max Gust Speed 20 mph    
Visibility 10 miles    
Events Rain    
T = Trace of Precipitation, MM = Missing Value Source: NWS Daily Summary

Daily Weather History Graph

Daily Weather History Graph

Search for Another Location

Airport or City:

Trip Planner

Search our weather history database for the weather conditions in past years. The results will help you decide how hot, cold, wet, or windy it might be!

Date:

Astronomy

Jul. 14, 2013 Rise Set
Actual Time 5:17 AM MDT 8:58 PM MDT
Civil Twilight 4:37 AM MDT 9:37 PM MDT
Nautical Twilight 3:44 AM MDT 10:30 PM MDT
Astronomical Twilight 2:28 AM MDT 11:45 PM MDT
Moon 12:11 PM MDT (7/14) 11:36 PM MDT (7/14)
Length of Visible Light 16h 59m
Length of Day
15h 41m
Waxing Crescent, 35% of the Moon is Illuminated
Jul 14
Waxing Crescent
Jul 15
First Quarter
Jul 22
Full
Jul 29
Last Quarter
Aug 6
New

Hourly Weather History & Observations

Time (MDT) Temp. Dew Point Humidity Pressure Visibility Wind Dir Wind Speed Gust Speed Precip Events Conditions
12:53 AM 53.1 °F 48.9 °F 86% 30.19 in 10.0 mi North 5.8 mph - N/A   Clear
1:53 AM 51.1 °F 46.9 °F 86% 30.19 in 10.0 mi Calm Calm - N/A   Clear
2:53 AM 50.0 °F 48.0 °F 93% 30.22 in 10.0 mi SSW 3.5 mph - N/A   Clear
3:53 AM 48.9 °F 46.0 °F 90% 30.24 in 10.0 mi Calm Calm - N/A   Clear
4:53 AM 46.9 °F 44.1 °F 90% 30.26 in 10.0 mi Calm Calm - N/A   Clear
5:38 AM 48.2 °F 44.6 °F 87% 30.27 in 10.0 mi NE 4.6 mph - N/A   Scattered Clouds
5:48 AM 50.0 °F 48.2 °F 94% 30.27 in 10.0 mi ENE 5.8 mph - N/A   Mostly Cloudy
5:53 AM 51.1 °F 48.9 °F 92% 30.28 in 10.0 mi NE 5.8 mph - N/A   Mostly Cloudy
6:53 AM 54.0 °F 52.0 °F 93% 30.29 in 10.0 mi East 5.8 mph - N/A   Overcast
7:01 AM 55.4 °F 51.8 °F 88% 30.29 in 10.0 mi East 6.9 mph - N/A   Overcast
7:08 AM 55.4 °F 51.8 °F 88% 30.30 in 10.0 mi East 6.9 mph - N/A   Overcast
7:53 AM 57.0 °F 51.1 °F 81% 30.30 in 10.0 mi East 10.4 mph - N/A   Overcast
8:53 AM 60.1 °F 51.1 °F 72% 30.30 in 10.0 mi East 6.9 mph - N/A   Overcast
9:53 AM 60.1 °F 51.1 °F 72% 30.31 in 10.0 mi ENE 6.9 mph - N/A   Overcast
10:43 AM 62.6 °F 50.0 °F 63% 30.30 in 10.0 mi ENE 11.5 mph - N/A   Overcast
10:53 AM 62.1 °F 50.0 °F 65% 30.31 in 10.0 mi East 10.4 mph - N/A   Overcast
11:53 AM 64.0 °F 51.1 °F 63% 30.30 in 10.0 mi East 8.1 mph - N/A   Mostly Cloudy
12:53 PM 68.0 °F 53.1 °F 59% 30.28 in 10.0 mi East 8.1 mph - N/A   Mostly Cloudy
1:53 PM 68.0 °F 52.0 °F 56% 30.27 in 10.0 mi East 8.1 mph - N/A   Partly Cloudy
2:53 PM 68.0 °F 53.1 °F 59% 30.26 in 10.0 mi East 10.4 mph - 0.00 in Rain Light Rain
3:53 PM 72.0 °F 53.1 °F 51% 30.23 in 10.0 mi ENE 15.0 mph - 0.00 in   Partly Cloudy
4:53 PM 72.0 °F 53.1 °F 51% 30.20 in 10.0 mi East 11.5 mph 19.6 mph N/A   Partly Cloudy
5:53 PM 72.0 °F 54.0 °F 53% 30.18 in 10.0 mi East 11.5 mph - N/A   Mostly Cloudy
6:53 PM 71.1 °F 54.0 °F 55% 30.17 in 10.0 mi ENE 11.5 mph - N/A   Overcast
7:53 PM 70.0 °F 55.0 °F 59% 30.13 in 10.0 mi East 12.7 mph - N/A   Clear
8:53 PM 66.0 °F 54.0 °F 65% 30.16 in 10.0 mi East 6.9 mph - N/A   Clear
9:53 PM 62.1 °F 54.0 °F 75% 30.17 in 10.0 mi East 6.9 mph - N/A   Clear
10:53 PM 57.9 °F 54.0 °F 87% 30.17 in 10.0 mi ENE 5.8 mph - N/A   Clear
11:53 PM 57.9 °F 54.0 °F 87% 30.16 in 10.0 mi East 8.1 mph - N/A   Clear